Radiation Dose at Monitoring Post of Fukushima Daini Nuclear Power Station
Date,Time,MP-1(microSv/h),MP-2(microSv/h),MP-3(microSv/h),MP-4(microSv/h),MP-5(microSv/h),MP-6(microSv/h),MP-7(microSv/h),Wind Direction,Wind Velocity(m/s),Rain
2016/05/10,00:00,0.453,0.263,0.478,0.424,0.392,0.212,0.187,south-southwest,8.6,Yes
2016/05/10,00:10,0.457,0.263,0.481,0.421,0.394,0.213,0.186,south-southwest,7.9,Yes
2016/05/10,00:20,0.453,0.265,0.477,0.426,0.391,0.213,0.188,south-southwest,8.9,Yes
2016/05/10,00:30,0.459,0.264,0.480,0.421,0.396,0.215,0.187,south-southwest,10.8,Yes
2016/05/10,00:40,0.455,0.268,0.482,0.426,0.394,0.216,0.189,south-southwest,10.0,Yes
2016/05/10,00:50,0.460,0.268,0.481,0.424,0.397,0.218,0.190,south-southwest,9.3,Yes
2016/05/10,01:00,0.456,0.268,0.482,0.427,0.395,0.220,0.190,south-southwest,9.2,Yes
2016/05/10,01:10,0.459,0.268,0.482,0.425,0.397,0.221,0.193,south-southwest,7.4,Yes
2016/05/10,01:20,0.457,0.270,0.482,0.427,0.395,0.221,0.191,south-southwest,8.6,Yes
2016/05/10,01:30,0.460,0.268,0.481,0.424,0.398,0.221,0.192,south-southwest,8.9,Yes
2016/05/10,01:40,0.455,0.270,0.479,0.425,0.397,0.219,0.191,south-southwest,8.2,Yes
2016/05/10,01:50,0.455,0.267,0.478,0.425,0.395,0.219,0.191,south-southwest,9.0,Yes
2016/05/10,02:00,0.451,0.269,0.477,0.423,0.394,0.216,0.189,south-southwest,7.9,Yes
2016/05/10,02:10,0.456,0.265,0.475,0.420,0.393,0.217,0.188,south-southwest,7.8,Yes
2016/05/10,02:20,0.451,0.266,0.474,0.421,0.394,0.216,0.188,south-southwest,7.5,Yes
2016/05/10,02:30,0.454,0.264,0.474,0.421,0.393,0.217,0.189,south-southwest,7.3,Yes
2016/05/10,02:40,0.450,0.267,0.475,0.420,0.393,0.216,0.189,south-southwest,7.2,Yes
2016/05/10,02:50,0.454,0.266,0.474,0.420,0.393,0.219,0.189,south-southwest,6.0,Yes
2016/05/10,03:00,0.452,0.267,0.471,0.420,0.394,0.218,0.190,south-southwest,5.4,Yes
2016/05/10,03:10,0.453,0.265,0.472,0.417,0.391,0.217,0.188,south-southwest,5.5,Yes
2016/05/10,03:20,0.450,0.266,0.471,0.418,0.392,0.216,0.188,south-southwest,5.9,Yes
2016/05/10,03:30,0.452,0.263,0.471,0.417,0.390,0.217,0.188,south,5.8,Yes
2016/05/10,03:40,0.449,0.264,0.469,0.414,0.392,0.215,0.187,south,5.3,Yes
2016/05/10,03:50,0.450,0.262,0.469,0.418,0.390,0.214,0.186,south,4.5,Yes
2016/05/10,04:00,0.446,0.263,0.467,0.415,0.392,0.214,0.185,south,1.9,Yes
2016/05/10,04:10,0.448,0.261,0.466,0.415,0.388,0.213,0.185,south,2.8,Yes
2016/05/10,04:20,0.447,0.261,0.468,0.412,0.390,0.212,0.184,south,2.5,Yes
2016/05/10,04:30,0.446,0.259,0.464,0.415,0.387,0.213,0.185,south-southeast,2.7,Yes
2016/05/10,04:40,0.445,0.261,0.467,0.411,0.391,0.212,0.184,south-southeast,2.8,Yes
2016/05/10,04:50,0.448,0.260,0.464,0.414,0.387,0.212,0.183,south-southeast,3.6,Yes
2016/05/10,05:00,0.442,0.261,0.466,0.410,0.390,0.212,0.184,south-southeast,3.1,Yes
2016/05/10,05:10,0.448,0.259,0.464,0.413,0.385,0.211,0.184,south-southeast,2.6,Yes
2016/05/10,05:20,0.444,0.259,0.464,0.408,0.388,0.211,0.182,south,0.8,No
2016/05/10,05:30,0.444,0.260,0.462,0.413,0.383,0.210,0.181,south-southwest,0.8,Yes
2016/05/10,05:40,0.442,0.257,0.464,0.408,0.389,0.209,0.181,south-southwest,1.1,Yes
2016/05/10,05:50,0.443,0.259,0.462,0.411,0.385,0.210,0.182,south,1.0,Yes
2016/05/10,06:00,0.442,0.257,0.463,0.407,0.389,0.210,0.182,south-southeast,1.7,Yes
2016/05/10,06:10,0.444,0.259,0.461,0.410,0.385,0.211,0.183,south-southeast,1.5,Yes
2016/05/10,06:20,0.442,0.258,0.463,0.408,0.388,0.211,0.182,south-southeast,1.4,Yes
2016/05/10,06:30,0.446,0.260,0.459,0.410,0.386,0.211,0.183,south-southwest,2.5,Yes
2016/05/10,06:40,0.441,0.259,0.462,0.407,0.389,0.211,0.183,southwest,2.1,Yes
2016/05/10,06:50,0.443,0.262,0.459,0.408,0.388,0.211,0.183,southwest,1.4,Yes
2016/05/10,07:00,0.439,0.257,0.461,0.408,0.386,0.212,0.182,northeast,1.5,Yes
2016/05/10,07:10,0.444,0.260,0.457,0.409,0.385,0.212,0.182,north-northeast,2.2,Yes
2016/05/10,07:20,0.440,0.258,0.461,0.406,0.388,0.210,0.182,northeast,3.0,Yes
2016/05/10,07:30,0.443,0.260,0.457,0.407,0.385,0.212,0.183,north-northwest,1.2,Yes
2016/05/10,07:40,0.441,0.259,0.458,0.405,0.388,0.212,0.183,north-northeast,1.8,Yes
2016/05/10,07:50,0.443,0.260,0.455,0.408,0.385,0.211,0.183,north-northeast,1.1,Yes
2016/05/10,08:00,0.439,0.258,0.459,0.403,0.386,0.212,0.182,northeast,1.9,Yes
2016/05/10,08:10,0.442,0.259,0.453,0.406,0.384,0.212,0.182,north-northwest,1.4,Yes
2016/05/10,08:20,0.438,0.257,0.456,0.402,0.386,0.210,0.181,north,2.4,Yes
2016/05/10,08:30,0.441,0.259,0.452,0.404,0.383,0.210,0.182,north,2.3,Yes
2016/05/10,08:40,0.436,0.257,0.455,0.400,0.387,0.209,0.181,north,3.6,Yes
2016/05/10,08:50,0.439,0.258,0.451,0.403,0.384,0.210,0.181,north,3.5,Yes
2016/05/10,09:00,0.436,0.257,0.453,0.398,0.387,0.209,0.182,north,3.8,Yes
2016/05/10,09:10,0.437,0.258,0.449,0.401,0.384,0.210,0.182,north,4.1,Yes
2016/05/10,09:20,0.434,0.258,0.454,0.400,0.387,0.210,0.180,north,4.9,Yes
2016/05/10,09:30,0.438,0.257,0.448,0.399,0.383,0.210,0.181,north,5.4,Yes
2016/05/10,09:40,0.434,0.258,0.453,0.397,0.388,0.210,0.181,north,4.9,Yes
2016/05/10,09:50,0.439,0.257,0.447,0.400,0.384,0.208,0.180,north,4.8,Yes
2016/05/10,10:00,0.434,0.257,0.452,0.399,0.387,0.209,0.180,north-northeast,5.9,Yes
2016/05/10,10:10,0.437,0.257,0.449,0.398,0.382,0.208,0.180,north-northeast,5.9,Yes
2016/05/10,10:20,0.432,0.257,0.452,0.398,0.386,0.209,0.179,north,5.4,Yes
2016/05/10,10:30,0.435,0.256,0.450,0.399,0.382,0.208,0.180,north,7.1,Yes
2016/05/10,10:40,0.433,0.256,0.452,0.398,0.386,0.209,0.179,north,7.0,Yes
2016/05/10,10:50,0.434,0.256,0.448,0.398,0.383,0.207,0.180,north,6.2,Yes
2016/05/10,11:00,0.432,0.256,0.451,0.398,0.387,0.209,0.181,north,5.6,Yes
2016/05/10,11:10,0.434,0.257,0.447,0.396,0.382,0.208,0.179,north,6.0,Yes
2016/05/10,11:20,0.429,0.255,0.449,0.398,0.387,0.207,0.180,north-northeast,5.3,Yes
2016/05/10,11:30,0.433,0.256,0.447,0.394,0.383,0.207,0.179,north-northeast,7.4,Yes
2016/05/10,11:40,0.430,0.256,0.447,0.396,0.386,0.209,0.179,north-northeast,6.6,Yes
2016/05/10,11:50,0.434,0.256,0.449,0.395,0.384,0.208,0.180,north,7.0,Yes
2016/05/10,12:00,0.429,0.255,0.446,0.398,0.386,0.207,0.178,north,7.3,Yes
2016/05/10,12:10,0.432,0.255,0.449,0.395,0.384,0.206,0.178,north,7.0,Yes
2016/05/10,12:20,0.428,0.256,0.448,0.397,0.385,0.208,0.178,north,7.9,Yes
2016/05/10,12:30,0.431,0.254,0.450,0.394,0.383,0.206,0.178,north,6.3,Yes
2016/05/10,12:40,0.428,0.255,0.446,0.397,0.385,0.207,0.178,north,7.6,Yes
2016/05/10,12:50,0.431,0.254,0.448,0.394,0.385,0.206,0.178,north,7.6,Yes
2016/05/10,13:00,0.427,0.256,0.446,0.398,0.385,0.208,0.179,north,7.2,Yes
2016/05/10,13:10,0.430,0.255,0.449,0.394,0.384,0.206,0.180,north,7.5,Yes
2016/05/10,13:20,0.429,0.256,0.447,0.397,0.385,0.207,0.179,north,6.5,Yes
2016/05/10,13:30,0.431,0.254,0.449,0.392,0.384,0.207,0.179,north,6.4,Yes
2016/05/10,13:40,0.429,0.256,0.447,0.397,0.385,0.207,0.179,north,7.1,Yes
2016/05/10,13:50,0.432,0.253,0.449,0.393,0.383,0.206,0.179,north,6.0,Yes
2016/05/10,14:00,0.429,0.254,0.444,0.396,0.384,0.205,0.177,north,6.9,Yes
2016/05/10,14:10,0.430,0.252,0.450,0.392,0.384,0.206,0.177,north,5.8,Yes
2016/05/10,14:20,0.427,0.254,0.444,0.396,0.384,0.204,0.177,north,8.2,Yes
2016/05/10,14:30,0.431,0.252,0.448,0.393,0.383,0.205,0.177,north,7.0,Yes
2016/05/10,14:40,0.428,0.254,0.444,0.396,0.383,0.203,0.176,north-northeast,6.9,Yes
2016/05/10,14:50,0.430,0.250,0.448,0.393,0.380,0.205,0.176,north,8.1,Yes
2016/05/10,15:00,0.426,0.253,0.445,0.395,0.383,0.202,0.175,north-northeast,8.2,Yes
2016/05/10,15:10,0.430,0.250,0.450,0.393,0.380,0.204,0.175,north,8.4,Yes
2016/05/10,15:20,0.425,0.253,0.445,0.395,0.383,0.202,0.175,north,8.9,Yes
2016/05/10,15:30,0.431,0.251,0.448,0.393,0.380,0.202,0.176,north,8.0,Yes
2016/05/10,15:40,0.426,0.251,0.445,0.395,0.384,0.201,0.174,north,9.3,Yes
2016/05/10,15:50,0.429,0.252,0.449,0.392,0.381,0.203,0.173,north,8.7,Yes
2016/05/10,16:00,0.426,0.251,0.444,0.396,0.383,0.201,0.175,north,9.3,Yes
2016/05/10,16:10,0.428,0.251,0.448,0.392,0.380,0.203,0.174,north,8.7,Yes
2016/05/10,16:20,0.427,0.251,0.446,0.396,0.383,0.202,0.174,north,7.5,Yes
2016/05/10,16:30,0.428,0.251,0.448,0.391,0.379,0.202,0.174,north,8.4,Yes
2016/05/10,16:40,0.426,0.250,0.445,0.393,0.384,0.201,0.172,north,8.9,Yes
2016/05/10,16:50,0.426,0.251,0.448,0.392,0.380,0.202,0.174,north,8.4,Yes
2016/05/10,17:00,0.428,0.250,0.444,0.395,0.381,0.202,0.173,north,8.6,Yes
2016/05/10,17:10,0.427,0.250,0.445,0.393,0.380,0.202,0.174,north,9.6,Yes
2016/05/10,17:20,0.427,0.250,0.446,0.393,0.381,0.201,0.173,north,11.4,Yes
2016/05/10,17:30,0.425,0.250,0.447,0.393,0.381,0.202,0.173,north,10.3,Yes
2016/05/10,17:40,0.428,0.251,0.446,0.393,0.379,0.202,0.173,north,8.9,Yes
2016/05/10,17:50,0.425,0.250,0.444,0.394,0.382,0.201,0.173,north,9.8,Yes
2016/05/10,18:00,0.429,0.251,0.448,0.392,0.379,0.203,0.173,north-northwest,8.9,Yes
2016/05/10,18:10,0.426,0.251,0.444,0.392,0.384,0.202,0.173,north,10.3,Yes
2016/05/10,18:20,0.426,0.252,0.446,0.391,0.380,0.203,0.172,north,10.3,Yes
2016/05/10,18:30,0.426,0.250,0.443,0.393,0.381,0.201,0.173,north,10.1,Yes
2016/05/10,18:40,0.426,0.251,0.447,0.391,0.381,0.203,0.173,north-northwest,9.2,Yes
2016/05/10,18:50,0.427,0.249,0.443,0.393,0.380,0.201,0.173,north-northwest,8.1,Yes
2016/05/10,19:00,0.424,0.249,0.447,0.391,0.383,0.200,0.172,north-northwest,8.5,Yes
2016/05/10,19:10,0.427,0.249,0.445,0.396,0.379,0.201,0.173,north-northwest,8.3,Yes
2016/05/10,19:20,0.425,0.248,0.445,0.391,0.380,0.202,0.172,north-northwest,8.4,Yes
2016/05/10,19:30,0.427,0.250,0.444,0.394,0.379,0.202,0.173,north,9.8,Yes
2016/05/10,19:40,0.424,0.249,0.443,0.392,0.380,0.201,0.172,north-northwest,9.2,Yes
2016/05/10,19:50,0.425,0.249,0.446,0.393,0.379,0.202,0.172,north-northwest,9.0,Yes
2016/05/10,20:00,0.424,0.249,0.443,0.394,0.379,0.201,0.172,north-northwest,9.2,Yes
2016/05/10,20:10,0.426,0.247,0.449,0.390,0.380,0.202,0.171,north-northwest,9.1,Yes
2016/05/10,20:20,0.427,0.249,0.444,0.394,0.378,0.201,0.172,north-northwest,9.9,Yes
2016/05/10,20:30,0.427,0.248,0.447,0.390,0.382,0.202,0.173,north-northwest,9.9,Yes
2016/05/10,20:40,0.428,0.250,0.443,0.394,0.377,0.201,0.172,north-northwest,10.7,Yes
2016/05/10,20:50,0.425,0.247,0.447,0.392,0.381,0.201,0.173,north-northwest,10.0,Yes
2016/05/10,21:00,0.429,0.250,0.443,0.393,0.379,0.202,0.173,north-northwest,9.3,Yes
2016/05/10,21:10,0.426,0.248,0.447,0.393,0.381,0.200,0.172,north-northwest,8.6,Yes
2016/05/10,21:20,0.429,0.249,0.446,0.396,0.382,0.202,0.173,north-northwest,9.5,Yes
2016/05/10,21:30,0.426,0.250,0.446,0.393,0.381,0.202,0.173,north-northwest,9.0,Yes
2016/05/10,21:40,0.428,0.250,0.447,0.394,0.382,0.203,0.174,north-northwest,8.9,Yes
2016/05/10,21:50,0.428,0.250,0.444,0.394,0.380,0.202,0.174,north-northwest,10.1,Yes
2016/05/10,22:00,0.428,0.250,0.449,0.393,0.383,0.204,0.174,north-northwest,9.3,Yes
2016/05/10,22:10,0.429,0.252,0.445,0.395,0.380,0.203,0.175,north-northwest,9.7,Yes
2016/05/10,22:20,0.427,0.251,0.448,0.393,0.383,0.204,0.176,north-northwest,9.6,Yes
2016/05/10,22:30,0.431,0.252,0.445,0.398,0.382,0.204,0.175,north-northwest,8.3,Yes
2016/05/10,22:40,0.428,0.251,0.450,0.393,0.383,0.204,0.176,north-northwest,8.1,Yes
2016/05/10,22:50,0.431,0.251,0.445,0.395,0.382,0.203,0.175,north-northwest,8.5,Yes
2016/05/10,23:00,0.428,0.251,0.447,0.393,0.382,0.203,0.174,north-northwest,8.0,Yes
2016/05/10,23:10,0.431,0.250,0.446,0.395,0.383,0.204,0.174,north-northwest,8.5,Yes
2016/05/10,23:20,0.426,0.251,0.446,0.395,0.381,0.202,0.174,north-northwest,8.4,Yes
2016/05/10,23:30,0.429,0.248,0.447,0.394,0.382,0.202,0.174,north-northwest,8.4,Yes
2016/05/10,23:40,0.429,0.252,0.445,0.395,0.381,0.202,0.173,north-northwest,8.1,Yes
2016/05/10,23:50,0.427,0.251,0.449,0.393,0.382,0.203,0.174,north,8.0,Yes
